When you browse on this site, cookies collect data to enhance your experience and personalize the content and advertising you see.
Visit our Privacy Policy to learn more. By continuing to use the site, you agree to this use of cookies and data.
  • In Belgium
  • List of Countries
  • For 7 days
  • Water Temperature
  • Satellite Maps
  • Weather Map
  • Weather Widgets
  • user-avatar
    Login

    Hourly Weather Izegem

    Today, 15 December, Saturday

    Time Temperature Precipitation Wind Pressure Humidity
    00:00 -2°C° 0 mm 2 mps 766 mmHg 74%
    01:00 -2°C° 0 mm 2 mps 766 mmHg 73%
    02:00 -3°C° 0 mm 2 mps 766 mmHg 73%
    03:00 -4°C° 0 mm 3 mps 766 mmHg 72%
    04:00 -4°C° 0 mm 3 mps 765 mmHg 72%
    05:00 -4°C° 0 mm 3 mps 765 mmHg 71%
    06:00 -4°C° 0 mm 4 mps 765 mmHg 69%
    07:00 -4°C° 0 mm 4 mps 765 mmHg 67%
    08:00 -4°C° 0 mm 5 mps 765 mmHg 65%
    09:00 -4°C° 0 mm 5 mps 765 mmHg 63%
    10:00 -3°C° 0 mm 6 mps 764 mmHg 61%
    11:00 -3°C° 0 mm 6 mps 763 mmHg 58%
    12:00 -2°C° 0 mm 7 mps 763 mmHg 55%
    13:00 -2°C° 0 mm 7 mps 762 mmHg 57%
    14:00 -2°C° 0 mm 7 mps 761 mmHg 58%
    15:00 -2°C° 0 mm 7 mps 760 mmHg 59%
    16:00 -2°C° 0.3 mm 8 mps 759 mmHg 64%
    17:00 -3°C° 0.3 mm 9 mps 758 mmHg 68%
    18:00 -3°C° 0.3 mm 10 mps 757 mmHg 73%
    19:00 -3°C° 2.4 mm 10 mps 756 mmHg 78%
    20:00 -3°C° 2.4 mm 10 mps 755 mmHg 83%
    21:00 -3°C° 2.4 mm 10 mps 755 mmHg 89%
    22:00 -3°C° 0.5 mm 9 mps 754 mmHg 89%
    23:00 -1°C° 0.5 mm 9 mps 754 mmHg 90%

    Tomorrow, 16 December, Sunday

    Time Temperature Precipitation Wind Pressure Humidity
    00:00 -1°C° 0.5 mm 8 mps 753 mmHg 90%
    01:00 -1°C° 0 mm 8 mps 753 mmHg 92%
    02:00 -1°C° 0 mm 7 mps 753 mmHg 93%
    03:00 -1°C° 0 mm 6 mps 753 mmHg 95%
    04:00 -1°C° 0 mm 6 mps 753 mmHg 94%
    05:00 +1°C° 0 mm 5 mps 753 mmHg 94%
    06:00 +1°C° 0 mm 4 mps 753 mmHg 94%
    07:00 +1°C° 0 mm 4 mps 753 mmHg 94%
    08:00 +1°C° 0 mm 4 mps 754 mmHg 94%
    09:00 +1°C° 0 mm 4 mps 754 mmHg 93%
    10:00 +3°C° 0.1 mm 4 mps 754 mmHg 94%
    11:00 +3°C° 0.1 mm 4 mps 754 mmHg 94%
    12:00 +4°C° 0.1 mm 4 mps 754 mmHg 95%
    13:00 +4°C° 0 mm 4 mps 755 mmHg 95%
    14:00 +4°C° 0 mm 4 mps 755 mmHg 95%
    15:00 +4°C° 0 mm 4 mps 755 mmHg 94%
    16:00 +3°C° 0 mm 4 mps 755 mmHg 95%
    17:00 +3°C° 0 mm 4 mps 756 mmHg 95%
    18:00 +3°C° 0 mm 4 mps 756 mmHg 95%
    19:00 +1°C° 0.2 mm 4 mps 756 mmHg 95%
    20:00 +1°C° 0.2 mm 4 mps 756 mmHg 95%
    21:00 +1°C° 0.2 mm 4 mps 757 mmHg 95%
    22:00 +1°C° 0.5 mm 4 mps 757 mmHg 95%
    23:00 +3°C° 0.5 mm 4 mps 757 mmHg 95%

    Day after tomorrow, 17 December, Monday

    Time Temperature Precipitation Wind Pressure Humidity
    00:00 +3°C° 0.5 mm 4 mps 757 mmHg 96%
    01:00 +3°C° 0.3 mm 4 mps 757 mmHg 96%
    02:00 +3°C° 0.3 mm 4 mps 757 mmHg 96%
    03:00 +3°C° 0.3 mm 4 mps 757 mmHg 96%
    04:00 +3°C° 0 mm 4 mps 758 mmHg 95%
    05:00 +3°C° 0 mm 3 mps 759 mmHg 94%
    06:00 +3°C° 0 mm 3 mps 759 mmHg 94%
    07:00 +3°C° 0 mm 3 mps 760 mmHg 93%
    08:00 +3°C° 0 mm 3 mps 761 mmHg 92%
    09:00 +3°C° 0 mm 3 mps 761 mmHg 91%
    10:00 +4°C° 0 mm 3 mps 762 mmHg 88%
    11:00 +5°C° 0 mm 3 mps 762 mmHg 85%
    12:00 +7°C° 0 mm 4 mps 763 mmHg 83%
    13:00 +7°C° 0 mm 3 mps 763 mmHg 85%
    14:00 +7°C° 0 mm 3 mps 763 mmHg 87%
    15:00 +5°C° 0 mm 3 mps 764 mmHg 89%
    16:00 +5°C° 0 mm 3 mps 764 mmHg 91%
    17:00 +4°C° 0 mm 4 mps 764 mmHg 92%
    18:00 +4°C° 0 mm 4 mps 765 mmHg 93%
    19:00 +4°C° 0 mm 4 mps 765 mmHg 93%
    20:00 +3°C° 0 mm 5 mps 765 mmHg 93%
    21:00 +3°C° 0 mm 5 mps 766 mmHg 93%
    22:00 +3°C° 0 mm 5 mps 765 mmHg 93%
    23:00 +2°C° 0 mm 5 mps 765 mmHg 93%

    18 December, Tuesday

    Time Temperature Precipitation Wind Pressure Humidity
    00:00 +2°C° 0 mm 5 mps 765 mmHg 93%
    01:00 +2°C° 0 mm 5 mps 765 mmHg 93%
    02:00 +2°C° 0 mm 5 mps 765 mmHg 93%
    03:00 +2°C° 0 mm 5 mps 764 mmHg 94%
    04:00 +2°C° 0 mm 6 mps 764 mmHg 94%
    05:00 +2°C° 0 mm 6 mps 764 mmHg 94%
    06:00 +2°C° 0 mm 6 mps 764 mmHg 94%
    07:00 +3°C° 0 mm 6 mps 763 mmHg 93%
    08:00 +3°C° 0 mm 7 mps 763 mmHg 91%
    09:00 +3°C° 0 mm 7 mps 763 mmHg 90%
    10:00 +4°C° 0 mm 8 mps 762 mmHg 83%
    11:00 +5°C° 0 mm 8 mps 761 mmHg 76%
    12:00 +6°C° 0 mm 8 mps 761 mmHg 69%
    13:00 +5°C° 0 mm 8 mps 760 mmHg 68%
    14:00 +5°C° 0 mm 8 mps 759 mmHg 67%
    15:00 +5°C° 0 mm 8 mps 758 mmHg 66%
    16:00 +4°C° 0 mm 8 mps 758 mmHg 66%
    17:00 +4°C° 0 mm 8 mps 757 mmHg 67%
    18:00 +2°C° 0 mm 9 mps 757 mmHg 67%
    19:00 +4°C° 0 mm 8 mps 756 mmHg 68%
    20:00 +4°C° 0 mm 8 mps 756 mmHg 68%
    21:00 +4°C° 0 mm 8 mps 755 mmHg 69%
    22:00 +4°C° 0 mm 8 mps 755 mmHg 70%
    23:00 +4°C° 0 mm 8 mps 754 mmHg 72%

    19 December, Wednesday

    Time Temperature Precipitation Wind Pressure Humidity
    00:00 +5°C° 0 mm 8 mps 754 mmHg 74%
    01:00 +5°C° 0.7 mm 8 mps 754 mmHg 78%
    02:00 +5°C° 0.7 mm 8 mps 754 mmHg 82%
    03:00 +5°C° 0.7 mm 8 mps 754 mmHg 87%
    04:00 +5°C° 0.2 mm 7 mps 755 mmHg 88%
    05:00 +5°C° 0.2 mm 6 mps 755 mmHg 89%
    06:00 +6°C° 0.2 mm 5 mps 755 mmHg 90%
    07:00 +6°C° 0 mm 5 mps 756 mmHg 90%
    08:00 +6°C° 0 mm 4 mps 757 mmHg 91%
    09:00 +6°C° 0 mm 4 mps 757 mmHg 92%
    10:00 +6°C° 0 mm 4 mps 757 mmHg 89%
    11:00 +7°C° 0 mm 4 mps 758 mmHg 86%
    12:00 +8°C° 0 mm 4 mps 758 mmHg 83%
    13:00 +8°C° 0 mm 3 mps 758 mmHg 85%
    14:00 +8°C° 0 mm 3 mps 758 mmHg 87%
    15:00 +8°C° 0 mm 3 mps 758 mmHg 89%
    16:00 +7°C° 0 mm 3 mps 758 mmHg 90%
    17:00 +7°C° 0 mm 3 mps 758 mmHg 91%
    18:00 +5°C° 0 mm 3 mps 758 mmHg 92%
    19:00 +5°C° 0 mm 3 mps 758 mmHg 92%
    20:00 +5°C° 0 mm 3 mps 759 mmHg 92%
    21:00 +5°C° 0 mm 3 mps 759 mmHg 93%
    22:00 +4°C° 0 mm 3 mps 759 mmHg 93%
    23:00 +4°C° 0 mm 3 mps 759 mmHg 93%

    20 December, Thursday

    Time Temperature Precipitation Wind Pressure Humidity
    00:00 +4°C° 0 mm 3 mps 759 mmHg 94%
    01:00 +4°C° 0.1 mm 3 mps 759 mmHg 94%
    02:00 +4°C° 0.1 mm 3 mps 759 mmHg 94%
    03:00 +4°C° 0.1 mm 3 mps 760 mmHg 94%
    04:00 +4°C° 0 mm 3 mps 760 mmHg 94%
    05:00 +4°C° 0 mm 3 mps 760 mmHg 94%
    06:00 +5°C° 0 mm 2 mps 760 mmHg 93%
    07:00 +4°C° 0 mm 3 mps 761 mmHg 93%
    08:00 +4°C° 0 mm 3 mps 761 mmHg 92%
    09:00 +4°C° 0 mm 3 mps 761 mmHg 92%
    10:00 +5°C° 0 mm 3 mps 761 mmHg 88%
    11:00 +7°C° 0 mm 3 mps 762 mmHg 84%
    12:00 +8°C° 0 mm 3 mps 762 mmHg 80%
    13:00 +8°C° 0.1 mm 3 mps 762 mmHg 83%
    14:00 +7°C° 0.1 mm 3 mps 762 mmHg 86%
    15:00 +7°C° 0.1 mm 3 mps 762 mmHg 88%
    16:00 +5°C° 0.1 mm 3 mps 763 mmHg 90%
    17:00 +5°C° 0.1 mm 3 mps 763 mmHg 91%
    18:00 +4°C° 0.1 mm 3 mps 763 mmHg 93%
    19:00 +4°C° 0 mm 3 mps 764 mmHg 93%
    20:00 +4°C° 0 mm 3 mps 764 mmHg 93%
    21:00 +4°C° 0 mm 3 mps 764 mmHg 94%
    22:00 +3°C° 0 mm 3 mps 765 mmHg 94%
    23:00 +4°C° 0 mm 2 mps 765 mmHg 94%
    Show more